Location: Caltech
(34.1382°N, 118.1253°W)
Time: 14:13:09
(UTC-07:00)

CZ-2C R/B - Visible Passes

Search period start: 19 April 2018 00:00
Search period end: 29 April 2018 00:00
Orbit: 668 x 785 km, 98.1° (Epoch: 19 April)

Date Brightness Start Highest point End Pass type
(mag) Time Alt. Az. Time Alt. Az. Time Alt. Az.
19 Apr 5.5 04:53:26 10° E 04:54:18 10° E 04:55:10 10° ESE visible
20 Apr 3.8 05:40:31 10° NNE 05:44:54 39° E 05:49:10 10° SSE visible
21 Apr 5.4 04:55:09 10° ENE 04:56:32 11° E 04:57:54 10° ESE visible
22 Apr 3.7 05:42:42 10° NNE 05:47:06 42° E 05:51:25 10° S visible
23 Apr 5.3 04:57:01 10° ENE 04:58:45 12° E 05:00:30 10° ESE visible
25 Apr 5.2 04:58:57 10° ENE 05:00:59 13° E 05:03:01 10° ESE visible
27 Apr 5.2 05:00:55 10° ENE 05:03:12 14° E 05:05:29 10° ESE visible
